Location: The C. Gantt Observatory
(33.6981°N, 81.6836°W)
Time: 03:24:15
(UTC-04:00)

Iridium 30 - Visible Passes

Search period start: 01 June 2016 00:00
Search period end: 11 June 2016 00:00
Orbit: 776 x 779 km, 86.4° (Epoch: 31 May)

Date Brightness Start Highest point End Pass type
(mag) Time Alt. Az. Time Alt. Az. Time Alt. Az.
01 Jun 7.2 01:35:53 10° NNE 01:39:03 28° NE 01:39:03 28° NE visible
01 Jun 7.3 03:17:05 10° NNW 03:19:31 19° WNW 03:19:31 19° WNW visible
02 Jun 7.8 01:03:26 10° NE 01:05:32 16° ENE 01:05:32 16° ENE visible
02 Jun 6.8 02:42:48 10° NNW 02:46:00 32° NW 02:46:00 32° NW visible
03 Jun 6.5 02:09:03 10° N 02:12:30 43° N 02:12:30 43° N visible
04 Jun 6.8 01:35:40 10° N 01:39:00 35° NE 01:39:00 35° NE visible
04 Jun 7.7 03:18:07 10° NW 03:19:28 13° WNW 03:19:28 13° WNW visible
05 Jun 7.4 01:02:46 10° NNE 01:05:31 22° NE 01:05:31 22° NE visible
05 Jun 7.2 02:43:16 10° NNW 02:45:59 24° NW 02:45:59 24° NW visible
06 Jun 7.9 00:30:51 10° NE 00:32:02 12° ENE 00:32:02 12° ENE visible
06 Jun 6.7 02:09:14 10° NNW 02:12:30 37° NNW 02:12:30 37° NNW visible
07 Jun 6.6 01:35:37 10° N 01:39:01 41° NNE 01:39:01 41° NNE visible
08 Jun 7.0 01:02:25 10° NNE 01:05:33 30° NE 01:05:33 30° NE visible
08 Jun 7.6 02:44:00 10° NW 02:46:01 17° WNW 02:46:01 17° WNW visible
09 Jun 7.6 00:29:46 10° NNE 00:32:05 18° ENE 00:32:05 18° ENE visible
09 Jun 7.0 02:09:34 10° NNW 02:12:33 29° NW 02:12:33 29° NW visible
10 Jun 6.6 01:35:42 10° N 01:39:06 41° NNW 01:39:06 41° NNW visible
